Погода в Павелеце

Погода в Павелеце : погода сейчас, прогноз погоды и архив. Всё, что Вы хотите узнать о погоде в Павелеце!

Поиск расширенной информации на нашем сайте:

Другие новости

Новости СМИ2

Главная страница сайта

Новости сайта

03.07.2017

Напоминаем, что на нашем специализированном сайте Метеоцентр.Азия вы можете получить высокодетализированные автоматические прогнозы погоды по пунктам России, СНГ и мира в авиационном формате (включающие направление и скорость ветра, видимость, явления погоды, количество и форму облачности, нижнюю и верхнюю границу облачности).

Рекомендуем: DONIC level 800 Waldner готовая ракетка

Погода в Павелеце - сегодня

Время (UTC), дата Ветер
(°,м/с) 
Видим.   Явления Облачность Т
(°С)
Тd
(°С)
f(%) Тe
(°С)
Pmin
(гПа)
dP
(гПа)
Po
(мм)
O2
(г/м3)
Тmin Tmax R s Состояние
почвы
18 17.04.18 170 (Ю) 20000 м    10/0 средняя 
[Ac trans]
+14 +5.5 57 +15  1015.4  0.2  743  284           
21 17.04.18 150 (ЮВ) 20000 м    10/0 средняя 
[Ac trans]
+11.8 +6.3 69 +12  1015  -0.6  743  286           
00 18.04.18 210 (ЮЗ) 20000 м    10/0 средняя, верхняя 
[Ac trans|Ci fib]
+12.4 +3.9 56 +12  1013.7  -1.2  742  285           
06 18.04.18 190 (Ю) 20000 м    10/5 600 м кучево-дожд., средняя 
[Cb calv|Ac trans]
+10.1 +2.8 60 +10  1010.9  -1.3  739  287  +9.3         
09 18.04.18 170 (Ю) 10 км  слаб. ливневой дождь  10/8 600 м кучево-дожд., средняя 
[Cb calv|Ac trans]
+8.2 +6.7 90 +7  1009.4  -1.6  738  288           
21 18.04.18 260 (З) 4000 м  слаб. дождь{ливн. осадки}  10/8 300 м средняя 
[Frnb|As op]
+5.6 +4.8 95 +5  1005.7  -2.2  735  289           
06 19.04.18 310 (СЗ) 10 км  слаб. дождь  10/6 300 м средняя 
[Frnb|As op]
+7 +6.4 96 +7  998.8  -1.6  730  286           
18 20.04.18 310 (СЗ) 20000 м    3/0 верхняя 
[Ci fib]
+7.1 +1.1 66 +8  1013.2  0.8  741  291           
21 20.04.18 тихо ()   20000 м    8/0 верхняя 
[Ci fib]
+5.7 +0.8 71 +6  1012.7  -0.6  740  292           
00 21.04.18 150 (ЮВ) 20000 м    10/0 верхняя 
[Ci fib]
+4.6 +1.1 78 +5  1011.3  -1.5  739  293           
06 21.04.18 220 (ЮЗ) 20000 м    10/0 средняя 
[Ac trans]
+10 +1.2 54 +9  1005.7  -2.5  736  286           
21 21.04.18 280 (З) 3-11{14}  н/о    н/о 
+9.5 +1.8 59 +9  990.6  -0.4  725  282           
18 22.04.18 320 (СЗ) 20000 м    10/8 600 м кучево-дожд., верхняя 
[Cb cap|Ci ing]
+2 -4.1 64 +1  1005.7  2.7  735  294           
21 22.04.18 330 (СЗ) 20000 м    8/0 верхняя 
[Ci fib]
+1.1 -4.3 67 1007.4  1.5  736  296           
00 23.04.18 290 (З) 20000 м    10/0 верхняя 
[Ci fib]
-1.1 -4.1 80 -1  1008.7  737  299           
06 23.04.18 320 (СЗ) 20000 м    1/0 верхняя 
[Ci fib]
+3.7 -7.5 44 +2  1010.7  1.5  739  294           
09 23.04.18 310 (СЗ) 4{13}  20000 м    5/5 600 м 
[Cu hum]
+6.4 -9.6 31 +5  1011  0.5  739  292           
18 23.04.18 тихо ()   20000 м    ясно 
+1.4 -8.1 49 +1  1013.5  1.5  741  298           
21 23.04.18 260 (З) 20000 м    ясно 
-0.6 -8 57 1014.1  0.4  741  300           
00 24.04.18 тихо ()   20000 м    ясно 
-2.1 -8 64 -2  1014.5  0.4  741  302           
06 24.04.18 260 (З) 20000 м    ясно 
+7 -8.1 33 +8  1014.7  0.2  742  292           
09 24.04.18 260 (З) 20000 м    4/0 верхняя 
[Ci fib]
+10.6 -10 22 +11  1013.9  -0.4  742  289           
12 24.04.18 240 (ЮЗ) 20000 м    6/0 верхняя 
[Ci fib]
+12.8 -9.5 20 +13  1012.3  -1.4  741  286           
18 24.04.18 тихо ()   20000 м    10/3 600 м кучево-дожд., средняя 
[Cb calv|Ac trans]
+6 -4.5 47 +6  1011.7  740  292           
21 24.04.18 230 (ЮЗ) 20000 м    10/0 средняя 
[Ac trans]
+6.3 -2.5 53 +6  1011.1  -0.5  739  291           
Время (UTC), дата Ветер
(°,м/с) 
Видим.   Явления Облачность Т
(°С)
Тd
(°С)
f(%) Тe
(°С)
Pmin
(гПа)
dP
(гПа)
Po
(мм)
O2
(г/м3)
Тmin Tmax R s Состояние
почвы

Для получения пояснительной информации подведите курсор к названию столбца.

ПОГОДА в Павелеце - архив

Всё, что Вы хотите узнать о погоде в Павелеце - удобно и подробно!

Выберите нужную дату (начиная с 1 января 2015* года) и нажмите кнопку "Найти".
Будут отображены архивные сводки погоды по пункту Павелец, начиная с указанной даты.


Отображать данные в формате CSV (для использования в таблицах Excel)


Внимание! Наш архив погоды предназначен исключительно для личного некоммерческого использования в познавательных целях. Если Вам необходимы официальные справки о состоянии погоды (для производственных, юридических, коммерческих и т.п. целей), обращайтесь в органы Росгидромета.

*Примечание: данная дата относится к архиву по метеостанциям СССР (Россия, СНГ, Балтия).
Архив по метеостанциям Зарубежной Европы и Азии (кроме Китая) хранится 10 дней, по другим регионам земного шара (Китай, Африка, Америка, Австралия, Океания) - 1 день.

Павелец - район местоположения метеостанции


Название, широта, долгота, высота метеостанции:
Павелец 53.8°ш. 39.2°д. 209 м над ур. моря [Российская Федерация]

Дополнительная информация

В oтличие oт бoльшинства пoгoдных сайтoв мы публикуем пoдрoбную метеoинфoрмацию в детальнoм прoфессиoнальнoм фoрмате.

Характеристики температуры и влажнoсти вoздуха измеряются на высoте 2 м в тени вдали oт зданий и деревьев.
Скoрoсть ветра измеряется на высoте 10 м (на урoвне рoста челoвека скoрoсть ветра ниже в 1.5-2 раза). Если метеoстанция нахoдится в гoрoде или в лесу, тo скoрoсть ветра занижена на 2-4 м/с пo сравнению с oткрытым местoм. Скoрoсть ветра над акватoриями крупных рек и oзёр, а также на вершинах хoлмoв на 2-5 м/с выше, чем в oбычных услoвиях.
Атмoсфернoе давление в разных тoчках местнoсти мoжет значительнo oтличаться oт давления на метеoстанции, в зависимoсти oт услoвий рельефа (при пoдъёме на 10 м давление пoнижается примернo на 1 мм рт.ст.).